sat.trackr.live / text

‹ back to catalog

STARLINK-32869

NORAD 62859 · 2025-022F

PAYLOAD ACTIVE UNKNOWN

§ Identity

Operator
Country
US
Launch date
2025-02-01
Launch site
AFWTR
Launch vehicle
Mass (kg)
RCS (m²)

Purposes: comms

External: N2YO · Heavens-Above · Gunter

§ Orbital elements

Epoch: 2026-09-20T09:32:25.937088Z

Period
93.85 min
Inclination
53.1594°
Eccentricity
0.0001235
Mean motion
15.34393804 rev/d
Perigee alt
461.9 km
Apogee alt
463.6 km
Semi-major
6,840.9 km
B*
7.1722e-4
RAAN
302.1651°
Arg perigee
84.9198°
Mean anomaly
275.1945°
Rev number
9,175

§ Raw data

STARLINK-328691 62859U 25022F   26263.39752242  .00023929  00000+0  71722-3 0  99902 62859  53.1594 302.1651 0001235  84.9198 275.1945 15.34393804 91752

JSON: /api/v1/satellites/62859 · /tle

For live sub-satellite position, see the globe view (requires WebGL).

§ Visibility from observer

Set your observer location to see the next 7 days of passes ≥ 10°. The values pass through the URL so the page stays shareable.

No JS? Fill the form by hand. The geolocation button needs JavaScript.